Torna al catalogo

THORAD DELTA 1 DEB

AttivoLEO
NORAD 42619·DEBRIS·🇺🇸 United States

Lanciato Nov 15, 1974 da Vandenberg Space Force Base

Loading…

Prossimi Passaggi (prossime 24 ore)

TLE

ObsoletoSource: Space-Track

Epoca: Sep 7, 2026, 19:37 UTC

1 42619U 74089GL  26250.81781714  .00001071  00000-0  17462-2 0  9993
2 42619 102.0487 266.2266 0176944 215.5269 321.7433 13.45169158625219

Traccia THORAD DELTA 1 DEB in tempo reale con AllMySat

Download on the App Store